Location: Cisewo
(53.3833°N, 14.9000°E)
Time: 12:41:51
(UTC+00:00)

COBE Rocket - Pass Details

Date: 18 April 2021
Orbit: 681 x 781 km, 97.1° (Epoch: 16 May)

Event Time Altitude Azimuth Distance (km) Brightness Sun altitude
Exits shadow 22:19:44 58° 91° (E) 830 4.0 -24.9°
Maximum altitude 22:20:04 60° 71° (ENE) 819 4.1 -24.9°
Drops below altitude 10° 22:24:53 10° 353° (N) 2,230 7.5 -25.0°
Sets 22:27:13 0° 350° (N) 3,172 8.6 -25.1°
